星链-5743 (STARLINK-5743 )

导读

STARLINK-5743是美国太空探索技术公司SpaceX星链卫星互联网项目中的一颗卫星,于北京时间2023年2月12日发射入轨,属于星链星座扩容任务的组成部分,主要服务全球卫星互联网覆盖,为偏远地区、海洋空域等场景提供低延迟宽带网络接入服务,目前该卫星已正常在轨运行超3年,参与星链星座组网工作。

基本信息
目录编号:
55597
目录名称:
STARLINK-5743
国际标识:
2023-020AE
轨道中心:
EARTH
卫星名称:
星链-5743
卫星全名:
星链-5743 (STARLINK-5743 )
卫星状态:
在轨 (已飞行1308 天)
发射日期:
2023-02-12 UTC
国别 :
美国 (US)
星等 :
--
该卫星已列入 空间交会检测服务 Space Conjunction Data Service (SCDS) ,当前飞行风险评估等级: 无高风险
轨道信息
数据来源 国际轨道数据
星历时间: 2026-09-11T17:24:58+0800
1天前
查看轨道信息
半长轴: 6861.196km
偏心率: 0.0001491
轨道倾角: 43.003°
近地点辐角 276.883°
升交点赤经 25.199°
平近点角 83.185°
近地点: 482.035km
远地点: 484.083km
周期: 94.267分钟
每日圈数: 15.275769
详细信息
固有亮度:
5
最大亮度:
2.5
卫星平台:
Starlink v1.5
覆盖范围:
全球
运营商:
太空探索技术公司
运营商所在国:
美国
制造商(研发单位):
太空探索技术公司
制造商所在国:
美国
使用方式:
暂无
卫星简介
星链(Starlink)计划是由太空探索技术公司(SpaceX)提出的一个巨型低轨卫星互联网星座项目,计划在2019年至2024年间在太空搭建由约1.2万颗卫星组成的“星链”网络,其中1584颗将部署在地球上空550千米处的近地轨道,并从2020年开始工作。该卫星仍在工作。
2D轨道图
3D轨道图
轨道高度分析图
轨道倾角分析图
轨道综合分析图
查看轨道综合分析图
交会数据列表
事件ID 空间交会对象 最接近时刻(TCA) 交会距离 交会风险概率(CRP) 交会风险指数(CRI) 操作
CDM_260914-015305-559706-253121
2026-09-14T
01:53:16+0000
0.858 km
远距离
3.352526E-5 中风险 0.66
CDM_260910-172805-559706-261924
IRIS-F3 (62619)
2026-09-10T
17:28:10+0000
1.219 km
极远距离
9.65397E-6 低风险 0.55
CDM_260914-032705-559706-253121
2026-09-14T
03:27:25+0000
1.427 km
极远距离
5.880783E-6 低风险 0.5
CDM_260915-040505-559706-697421
2026-09-15T
04:05:17+0000
1.243 km
极远距离
3.956615E-6 低风险 0.47
与全量物体交会距离演化趋势
与全量物体交会风险概率演化趋势